[[{"header":{"parameterUnit":"m.s-1","parameterCategory":1,"la1":30.2991,"la2":30.254,"lo1":-89.0895,"lo2":-89.0444,"dy":0.0017,"dx":0.0017,"nx":28,"ny":28,"refTime":"2023-08-29T21:00:00:Z","depth":0,"parameterNumber":2,"parameterNumberName":"U-component_of_WINDS"},"data":[0,0,0,0,0,0,0,0,0,0,0,0,0,0,0,0,0,0,0,0,0,0,0,0,0,0,0,0,0,0,0,0,0,0,0,0,0,0,0,0,0,0,0,0,0,0,0,0,0,0,0,0,0,0,0,0,0,0,-0.2109,-0.2108,0,-0.1965,-0.1963,-0.1961,-0.1894,-0.1894,-0.1894,-0.1894,-0.1743,-0.1739,-0.1735,0,0,0,0,0,0,0,0,0,0,0,0,0,-0.2322,-0.2319,-0.211,-0.2108,-0.2106,-0.1965,-0.1963,-0.1961,-0.1894,-0.1894,-0.1894,-0.1894,-0.1744,-0.174,-0.1735,0,0,0,0,0,0,0,0,0,0,0,0,0,-0.2209,-0.2318,-0.211,-0.2056,-0.2049,-0.1965,-0.1963,-0.196,-0.1894,-0.1894,-0.1894,-0.1894,-0.1746,-0.174,-0.1734,-0.1692,0,0,-0.1715,-0.1712,0,0,0,0,0,0,0,0,-0.2216,-0.2201,-0.2065,-0.2059,-0.2052,-0.1948,-0.1982,-0.187,-0.1894,-0.1953,-0.1894,-0.1894,-0.1811,-0.1799,-0.1772,-0.1685,-0.1679,-0.1714,-0.1711,-0.1708,-0.1706,0,0,0,0,0,0,0,-0.2223,-0.2207,-0.2052,-0.2063,-0.2055,-0.2036,-0.2021,-0.1961,-0.1882,-0.1948,-0.1942,-0.1926,-0.1807,-0.1778,-0.1768,-0.1677,-0.1715,-0.1709,-0.1705,-0.1703,-0.1544,-0.1543,0,0,0,0,0,0,-0.2241,-0.2214,-0.2057,-0.2048,-0.2136,-0.2033,-0.2015,-0.1981,-0.1883,-0.1868,-0.1926,-0.1924,-0.1788,-0.1775,-0.1762,-0.1704,-0.1708,-0.1702,-0.1699,-0.1544,-0.1544,-0.1543,0,0,0,0,0,0,-0.2246,-0.2227,-0.2063,-0.2129,-0.2107,-0.2029,-0.1991,-0.1978,-0.1949,-0.1867,-0.1852,-0.1911,-0.1788,-0.1771,-0.1709,-0.1698,-0.1699,-0.1694,-0.1545,-0.1544,-0.1543,-0.1589,0,0,0,0,0,0,-0.2252,-0.223,-0.2215,-0.213,-0.2104,-0.2014,-0.1991,-0.1975,-0.1938,-0.1934,-0.1849,-0.1835,-0.1787,-0.1719,-0.1703,-0.1689,-0.1689,-0.1546,-0.1545,-0.1544,-0.1588,-0.159,-0.1592,0,0,0,0,0,-0.226,-0.2234,-0.2214,-0.2196,-0.2084,-0.2014,-0.1999,-0.1945,-0.1938,-0.1921,-0.1868,-0.1838,-0.1702,-0.1713,-0.1695,-0.1679,-0.1546,-0.1545,-0.1544,-0.1588,-0.159,-0.1592,0,0,0,0,0,0,-0.2319,-0.2222,-0.2199,-0.2145,-0.2088,-0.2003,-0.198,-0.1949,-0.1893,-0.1891,-0.1825,-0.1806,-0.175,-0.1708,-0.1723,-0.1631,-0.1621,-0.1616,-0.166,-0.1662,-0.1663,-0.1674,-0.1684,0,0,0,0,0,-0.2326,-0.2279,-0.2196,-0.2156,-0.2128,-0.2059,-0.2027,-0.199,-0.1928,-0.1903,-0.1846,-0.1786,-0.1729,-0.1693,-0.1637,-0.1582,-0.156,-0.1562,-0.1563,-0.1565,-0.1561,-0.1525,-0.1523,-0.1539,-0.1539,-0.1539,0,0,-0.2339,-0.228,-0.2255,-0.2166,-0.2118,-0.2068,-0.2039,-0.1989,-0.1951,-0.1895,-0.1833,-0.1789,-0.1717,-0.1658,-0.1629,-0.1621,-0.1552,-0.1564,-0.1566,-0.156,-0.1524,-0.1522,-0.1521,-0.1539,-0.1539,-0.1539,0,0,-0.2338,-0.229,-0.225,-0.2201,-0.2128,-0.2082,-0.2072,-0.199,-0.1959,-0.1896,-0.1852,-0.1804,-0.1709,-0.1659,-0.1621,-0.1597,-0.1566,-0.158,-0.1588,-0.1554,-0.1552,-0.1551,-0.1539,-0.1536,-0.1577,-0.1577,-0.1577,0,-0.2364,-0.2289,-0.2233,-0.2184,-0.2144,-0.2092,-0.2049,-0.2004,-0.1917,-0.189,-0.1883,-0.176,-0.1708,-0.1634,-0.1628,-0.16,-0.1584,-0.1589,-0.1558,-0.1555,-0.1553,-0.1541,-0.1537,-0.1579,-0.1579,-0.1579,-0.1578,0,-0.2322,-0.2271,-0.2247,-0.2163,-0.2121,-0.2076,-0.201,-0.1974,-0.194,-0.1893,-0.1827,-0.1763,-0.1691,-0.1671,-0.1638,-0.1591,-0.1588,-0.1571,-0.1558,-0.1555,-0.1542,-0.1537,-0.1582,-0.1581,-0.1581,-0.158,0,0,-0.2356,-0.2239,-0.2231,-0.2191,-0.2105,-0.2063,-0.2013,-0.1943,-0.1912,-0.1852,-0.1807,-0.1726,-0.1708,-0.1665,-0.1625,-0.1595,-0.1575,-0.158,-0.1577,-0.1579,-0.1516,-0.1528,-0.1524,-0.1555,-0.1553,-0.1553,-0.1521,0,-0.2341,-0.2251,-0.2197,-0.2128,-0.2078,-0.2025,-0.1981,-0.1923,-0.1877,-0.1826,-0.1775,-0.1717,-0.1699,-0.1672,-0.164,-0.1585,-0.1561,-0.1586,-0.1509,-0.1507,-0.1527,-0.1518,-0.1532,-0.1505,-0.1516,-0.1515,-0.1514,0,-0.2313,-0.2253,-0.218,-0.2096,-0.2072,-0.2034,-0.1963,-0.1916,-0.1847,-0.1815,-0.1766,-0.1725,-0.1667,-0.166,-0.1578,-0.1596,-0.1561,-0.1529,-0.1526,-0.1515,-0.151,-0.1505,-0.1496,-0.1491,-0.1507,-0.1507,-0.1508,0,-0.2341,-0.2243,-0.2185,-0.2152,-0.2054,-0.2028,-0.1985,-0.1916,-0.1876,-0.1814,-0.1786,-0.1718,-0.168,-0.1627,-0.1568,-0.1569,-0.149,-0.1479,-0.146,-0.1461,-0.1445,-0.1446,-0.1428,-0.1426,-0.1426,-0.1426,-0.1426,0,-0.2329,-0.2286,-0.2196,-0.216,-0.2108,-0.2045,-0.1995,-0.1948,-0.1886,-0.1838,-0.1789,-0.1744,-0.167,-0.1615,-0.1568,-0.1505,-0.1489,-0.146,-0.1447,-0.1463,-0.1466,-0.1438,-0.1437,-0.1425,-0.1425,-0.1425,-0.1425,0,-0.2353,-0.2292,-0.2224,-0.2136,-0.2112,-0.2077,-0.2,-0.1962,-0.1913,-0.1852,-0.1834,-0.1757,-0.169,-0.1625,-0.1536,-0.1504,-0.144,-0.1425,-0.1464,-0.1456,-0.1439,-0.1441,-0.14,-0.139,-0.1398,-0.1398,-0.1398,0,-0.2349,-0.2313,-0.222,-0.2185,-0.2143,-0.2087,-0.2045,-0.1981,-0.1939,-0.1855,-0.1826,-0.1755,-0.1695,-0.159,-0.1524,-0.1454,-0.1436,-0.1426,-0.1425,-0.144,-0.1432,-0.1434,-0.1428,-0.1427,-0.1428,-0.1428,-0.1428,0,-0.2347,-0.2317,-0.226,-0.219,-0.2142,-0.2084,-0.2025,-0.1998,-0.1921,-0.1876,-0.1807,-0.176,-0.1667,-0.1596,-0.1518,-0.1472,-0.1436,-0.1429,-0.142,-0.1435,-0.1457,-0.1441,-0.1465,-0.143,-0.143,-0.143,-0.1429,-0.1429,-0.2354,-0.2319,-0.2247,-0.2183,-0.2131,-0.2076,-0.2034,-0.1979,-0.1921,-0.184,-0.1805,-0.1734,-0.1661,-0.1553,-0.1506,-0.1448,-0.144,-0.1428,-0.1424,-0.1422,-0.1424,-0.1468,-0.1434,-0.1434,-0.1434,-0.1434,-0.1433,0,-0.2348,-0.2298,-0.224,-0.2158,-0.2106,-0.2078,-0.2009,-0.1967,-0.1906,-0.1842,-0.1783,-0.1701,-0.1631,-0.1559,-0.1484,-0.145,-0.1432,-0.1433,-0.1433,-0.1422,-0.1437,-0.1451,-0.1449,-0.1449,-0.1449,-0.1449,-0.1449,-0.1449,-0.2338,-0.2276,-0.2237,-0.2147,-0.2097,-0.2027,-0.199,-0.1937,-0.1885,-0.1796,-0.1737,-0.1691,-0.1622,-0.1541,-0.1474,-0.1454,-0.1427,-0.1433,-0.1408,-0.1423,-0.1422,-0.1421,-0.1434,-0.1428,-0.1428,-0.1398,-0.1397,-0.1397]},{"header":{"parameterUnit":"m.s-1","parameterCategory":1,"la1":30.2991,"la2":30.254,"lo1":-89.0895,"lo2":-89.0444,"dy":0.0017,"dx":0.0017,"nx":28,"ny":28,"refTime":"2023-08-29T21:00:00:Z","depth":0,"parameterNumber":3,"parameterNumberName":"V-component_of_WINDS"},"data":[0,0,0,0,0,0,0,0,0,0,0,0,0,0,0,0,0,0,0,0,0,0,0,0,0,0,0,0,0,0,0,0,0,0,0,0,0,0,0,0,0,0,0,0,0,0,0,0,0,0,0,0,0,0,0,0,0,0,-1.9427,-1.9428,0,-1.945,-1.945,-1.9451,-1.9489,-1.9489,-1.949,-1.9491,-1.9512,-1.9512,-1.9512,0,0,0,0,0,0,0,0,0,0,0,0,0,-1.9414,-1.9414,-1.9427,-1.9428,-1.9428,-1.945,-1.945,-1.9451,-1.9488,-1.9489,-1.949,-1.9491,-1.9512,-1.9512,-1.9512,0,0,0,0,0,0,0,0,0,0,0,0,0,-1.9427,-1.9414,-1.9427,-1.9449,-1.9452,-1.945,-1.945,-1.9451,-1.9488,-1.9489,-1.949,-1.9491,-1.9512,-1.9512,-1.9512,-1.949,0,0,-1.9511,-1.9511,0,0,0,0,0,0,0,0,-1.9426,-1.9427,-1.9446,-1.9448,-1.945,-1.9468,-1.9454,-1.9464,-1.9488,-1.9474,-1.9491,-1.9492,-1.9496,-1.9497,-1.9499,-1.9491,-1.9492,-1.9511,-1.9511,-1.9511,-1.9511,0,0,0,0,0,0,0,-1.9425,-1.9426,-1.9436,-1.9446,-1.9449,-1.9458,-1.9461,-1.9456,-1.9479,-1.9476,-1.9478,-1.9481,-1.9498,-1.9499,-1.95,-1.9492,-1.9511,-1.9511,-1.9511,-1.9511,-1.9464,-1.9463,0,0,0,0,0,0,-1.9421,-1.9425,-1.9436,-1.9437,-1.9441,-1.9457,-1.946,-1.9461,-1.9479,-1.9483,-1.948,-1.9482,-1.9499,-1.95,-1.9501,-1.9474,-1.9511,-1.9511,-1.9511,-1.9466,-1.9464,-1.9463,0,0,0,0,0,0,-1.9421,-1.9422,-1.9435,-1.9432,-1.9434,-1.9456,-1.9457,-1.9461,-1.9463,-1.9482,-1.9486,-1.9477,-1.95,-1.9501,-1.9492,-1.9476,-1.9511,-1.9511,-1.9467,-1.9465,-1.9464,-1.9422,0,0,0,0,0,0,-1.942,-1.9421,-1.9414,-1.9432,-1.9434,-1.9426,-1.9456,-1.9461,-1.9463,-1.9466,-1.9481,-1.9485,-1.9501,-1.9492,-1.9492,-1.9476,-1.9511,-1.9468,-1.9466,-1.9464,-1.9425,-1.9419,-1.9414,0,0,0,0,0,-1.942,-1.9401,-1.9413,-1.9414,-1.9425,-1.9425,-1.9426,-1.9446,-1.9461,-1.9453,-1.9466,-1.9484,-1.9478,-1.9491,-1.9491,-1.9475,-1.9469,-1.9467,-1.9464,-1.9427,-1.942,-1.9414,0,0,0,0,0,0,-1.938,-1.9404,-1.9417,-1.9404,-1.9412,-1.9431,-1.9421,-1.9438,-1.9441,-1.9444,-1.9468,-1.9471,-1.9458,-1.9466,-1.948,-1.9454,-1.9477,-1.9474,-1.9448,-1.9442,-1.9436,-1.9433,-1.951,0,0,0,0,0,-1.937,-1.9368,-1.9389,-1.9375,-1.9378,-1.9399,-1.94,-1.9414,-1.9423,-1.9427,-1.9439,-1.9446,-1.9446,-1.9445,-1.9446,-1.9427,-1.943,-1.9416,-1.9411,-1.9406,-1.9403,-1.9391,-1.9385,-1.9454,-1.9454,-1.9454,0,0,-1.9348,-1.9361,-1.9358,-1.9367,-1.9375,-1.9371,-1.9402,-1.9397,-1.9394,-1.9426,-1.9417,-1.9426,-1.9436,-1.9421,-1.9416,-1.9428,-1.9385,-1.9403,-1.9399,-1.9398,-1.9388,-1.9381,-1.9375,-1.9453,-1.9453,-1.9453,0,0,-1.9306,-1.9317,-1.9305,-1.9313,-1.9325,-1.9339,-1.9336,-1.9353,-1.936,-1.9352,-1.9375,-1.9373,-1.9372,-1.9378,-1.938,-1.9341,-1.9357,-1.9341,-1.9311,-1.93,-1.9294,-1.929,-1.9273,-1.9267,-1.9338,-1.9338,-1.9338,0,-1.9277,-1.9273,-1.9297,-1.9291,-1.9293,-1.9323,-1.9311,-1.9317,-1.9328,-1.9329,-1.9343,-1.9342,-1.9351,-1.9337,-1.9327,-1.9329,-1.9325,-1.9338,-1.9294,-1.9289,-1.9285,-1.9269,-1.9263,-1.9336,-1.9336,-1.9336,-1.9336,0,-1.9236,-1.9233,-1.9222,-1.9233,-1.9235,-1.9225,-1.9247,-1.9246,-1.9261,-1.9273,-1.9264,-1.9276,-1.9279,-1.9278,-1.9292,-1.9265,-1.9272,-1.929,-1.9312,-1.9275,-1.926,-1.9255,-1.9332,-1.9333,-1.9334,-1.9334,0,0,-1.9166,-1.9191,-1.9186,-1.9191,-1.9207,-1.9204,-1.9196,-1.92,-1.9197,-1.9205,-1.9197,-1.9196,-1.9213,-1.9216,-1.9231,-1.9222,-1.9187,-1.9241,-1.9241,-1.9227,-1.9154,-1.9138,-1.9131,-1.9199,-1.9198,-1.9197,-1.9152,0,-1.9125,-1.9112,-1.9134,-1.9116,-1.9112,-1.9141,-1.9134,-1.9142,-1.9154,-1.9152,-1.9165,-1.9163,-1.9186,-1.9188,-1.918,-1.9192,-1.9172,-1.9197,-1.9189,-1.9189,-1.9182,-1.9124,-1.9107,-1.9063,-1.9147,-1.9146,-1.9146,0,-1.9074,-1.9079,-1.9061,-1.9077,-1.9076,-1.9069,-1.9073,-1.9072,-1.9082,-1.9091,-1.9095,-1.9114,-1.9106,-1.9131,-1.9119,-1.9135,-1.9134,-1.914,-1.9139,-1.9136,-1.9162,-1.9115,-1.905,-1.9042,-1.9137,-1.9138,-1.9139,0,-1.9021,-1.9024,-1.9012,-1.9016,-1.9035,-1.9029,-1.9037,-1.9048,-1.9049,-1.9053,-1.9053,-1.9057,-1.9057,-1.9059,-1.9078,-1.9095,-1.9062,-1.909,-1.9067,-1.9066,-1.9056,-1.9055,-1.8986,-1.9062,-1.9062,-1.9062,-1.9062,0,-1.8971,-1.8957,-1.8989,-1.8981,-1.8967,-1.8992,-1.8977,-1.8988,-1.8997,-1.8992,-1.9018,-1.9012,-1.9039,-1.9036,-1.9051,-1.9037,-1.9038,-1.9044,-1.9047,-1.9039,-1.9038,-1.9035,-1.9037,-1.906,-1.9061,-1.9061,-1.9061,0,-1.8907,-1.8928,-1.8917,-1.8937,-1.8942,-1.893,-1.8946,-1.8939,-1.8954,-1.8946,-1.8946,-1.8968,-1.8965,-1.8985,-1.8986,-1.8996,-1.8974,-1.8985,-1.897,-1.8972,-1.8947,-1.8947,-1.887,-1.886,-1.8946,-1.8945,-1.8944,0,-1.8871,-1.8861,-1.888,-1.8879,-1.8885,-1.8882,-1.8883,-1.8909,-1.8908,-1.8919,-1.891,-1.891,-1.891,-1.8905,-1.892,-1.892,-1.8929,-1.8902,-1.8929,-1.892,-1.8924,-1.8922,-1.892,-1.8895,-1.8894,-1.8893,-1.8892,0,-1.8804,-1.8815,-1.8815,-1.8819,-1.8819,-1.8823,-1.8829,-1.8826,-1.8854,-1.8852,-1.8849,-1.885,-1.8851,-1.885,-1.8853,-1.8861,-1.8879,-1.8884,-1.8878,-1.8868,-1.8858,-1.8859,-1.895,-1.8885,-1.8886,-1.8886,-1.8886,-1.8887,-1.875,-1.8742,-1.8754,-1.8753,-1.8761,-1.8765,-1.8759,-1.8774,-1.8772,-1.8775,-1.8791,-1.8785,-1.8795,-1.8802,-1.8808,-1.8803,-1.8816,-1.8808,-1.8805,-1.8802,-1.8796,-1.8863,-1.8804,-1.8805,-1.8805,-1.8805,-1.8805,0,-1.8681,-1.8691,-1.869,-1.8697,-1.8696,-1.8717,-1.8725,-1.8722,-1.8717,-1.8725,-1.8725,-1.8722,-1.8721,-1.8737,-1.8737,-1.873,-1.8739,-1.8729,-1.8727,-1.8728,-1.8786,-1.879,-1.8722,-1.8722,-1.8722,-1.8722,-1.8722,-1.8722,-1.8645,-1.8631,-1.8644,-1.8634,-1.8644,-1.8638,-1.864,-1.8645,-1.8651,-1.8646,-1.8645,-1.8657,-1.8667,-1.8669,-1.8668,-1.8673,-1.867,-1.8656,-1.8663,-1.8716,-1.8724,-1.8732,-1.8735,-1.8656,-1.8656,-1.8605,-1.8604,-1.8604]}]]